Wind_Speed
26 25 25 26 26 25 25 26 26 25 26 26 26 26 26 26 26 26 26 26 24 23 22 22 21 20 20 21 20 20 21 21 21 21 20 21 22 21 21 20 20 21 21 21
26 26 27 28 27 28 26 25 26 27 28 28 27 27 28 27 26 26 26 26 26 24 23 22 22 21 21 21 21 20 21 21 21 21 21 21 22 21 21 21 21 21 20 20
25 25 27 29 28 28 28 27 27 28 29 30 30 29 29 28 27 26 26 26 25 24 23 23 23 22 21 21 21 21 21 21 22 21 21 22 21 21 22 22 22 22 22 21
24 25 27 26 26 26 27 27 28 30 30 30 30 30 30 29 26 25 25 26 25 25 24 24 23 23 22 21 22 21 22 22 22 21 21 20 21 21 21 22 22 22 22 21
24 24 25 26 25 24 24 26 27 29 29 28 28 28 29 27 26 25 25 25 24 24 24 23 23 24 23 22 22 22 22 22 22 21 21 21 21 21 21 21 22 22 22 22
23 23 23 23 24 25 25 27 28 28 27 27 27 28 28 27 26 26 26 24 24 24 24 24 24 23 23 23 22 22 22 21 21 21 22 22 22 22 22 22 22 22 22 22
23 23 22 23 22 23 25 27 27 28 27 26 27 27 27 27 26 26 25 24 24 24 24 23 23 23 24 23 22 22 22 22 21 21 21 22 22 22 22 22 22 22 22 22
23 23 22 22 23 25 26 26 27 28 28 28 28 28 28 27 27 26 26 25 25 24 24 23 23 22 22 22 21 21 21 21 21 21 22 22 22 22 22 22 22 22 22 22
22 22 22 22 24 25 26 26 26 27 27 27 27 27 27 26 26 25 25 25 24 24 23 23 22 21 21 21 22 21 21 21 21 22 22 22 22 23 23 23 22 22 22 23
20 21 23 22 24 25 25 24 24 25 26 26 26 26 26 25 25 24 24 24 24 23 22 22 22 22 22 22 22 22 23 22 23 23 23 23 23 23 24 23 23 23 23 24
21 22 22 22 22 23 23 24 23 23 24 25 25 25 25 25 25 24 24 23 23 23 23 23 23 23 23 23 23 24 24 24 24 25 25 24 24 24 24 24 25 25 25 26
22 21 21 21 20 21 22 21 21 21 22 22 23 23 23 23 23 22 22 22 22 22 22 22 22 23 24 25 25 25 25 25 25 24 24 24 25 25 25 25 26 26 26 26
22 21 20 21 21 21 21 19 19 20 21 20 20 20 20 20 21 21 21 21 20 20 21 21 22 22 23 23 23 23 24 25 25 25 25 25 26 26 26 26 26 26 26 26
20 20 20 20 20 20 20 19 19 19 19 19 19 19 19 19 19 19 19 20 20 20 20 21 21 21 22 22 23 24 24 25 25 25 25 26 26 26 26 27 26 26 27 27
19 18 19 19 19 19 19 19 18 18 18 18 19 19 19 19 19 18 18 18 18 19 20 20 21 21 22 22 23 23 24 24 25 25 25 26 27 27 27 27 27 27 27 28
19 18 18 19 19 19 18 18 18 17 17 18 19 20 20 19 19 19 19 19 19 19 19 20 20 21 21 22 22 22 22 22 23 24 25 26 26 27 27 27 27 27 28 28
18 19 19 19 19 19 19 18 18 18 18 17 18 18 18 18 18 19 19 19 19 19 20 20 20 21 21 22 22 22 22 22 22 23 23 24 25 25 26 26 26 27 27 27
18 18 18 18 18 18 18 17 17 18 18 17 17 17 17 17 17 18 18 19 19 19 20 21 21 21 22 22 22 22 22 22 22 22 23 23 24 24 24 24 25 26 26 25
17 17 18 17 18 18 17 17 18 18 18 17 17 17 17 17 17 18 19 19 20 20 20 21 21 21 22 21 21 21 21 21 21 22 22 22 22 22 22 23 23 24 24 23
17 18 18 18 18 18 18 18 18 18 18 17 17 17 17 17 17 18 19 19 19 20 20 20 21 21 20 21 20 20 20 21 21 21 22 22 21 21 21 22 22 23 23 23
17 17 17 18 18 19 18 19 19 18 17 17 17 17 18 18 18 18 18 18 18 19 19 20 20 20 20 19 19 20 20 21 21 21 21 21 21 21 21 21 22 22 23 23
17 17 17 17 18 18 18 18 18 17 17 17 17 18 18 18 18 18 18 18 18 18 19 20 20 19 19 19 19 20 20 21 21 21 21 22 22 22 21 21 21 22 23 23
16 16 16 16 16 17 17 18 18 18 18 18 18 18 18 19 19 19 18 19 19 19 20 19 19 19 19 19 20 21 21 22 22 22 22 22 22 22 22 22 22 23 23 23
15 15 15 14 15 16 17 17 17 18 18 19 19 18 18 19 19 19 18 18 18 19 19 19 19 19 19 20 20 21 21 21 22 22 22 22 22 22 22 22 22 23 22 22
14 14 14 14 14 15 16 16 17 17 18 19 19 19 20 20 19 19 19 18 18 18 18 18 18 19 19 20 20 20 21 21 22 22 22 22 22 22 22 22 22 21 21 21
14 14 14 14 15 15 16 16 17 17 18 18 19 19 19 19 19 19 19 18 18 18 18 18 18 18 19 20 20 21 22 22 22 21 21 21 22 21 21 21 21 21 21 21
14 14 14 15 15 16 16 16 16 17 17 17 17 18 18 18 18 18 18 18 18 18 18 18 18 19 19 19 20 20 20 21 21 21 21 21 20 20 20 20 21 21 22 21
Wind_Direction
255 250 247 251 249 248 248 246 248 253 258 262 266 270 272 274 276 278 278 279 279 278 277 278 277 276 275 275 275 274 273 273 272 274 275 273 273 270 269 270 269 268 268 266
257 252 250 252 250 250 250 250 251 255 257 259 263 269 272 272 273 275 276 277 279 278 277 278 278 278 277 276 275 274 273 274 274 273 273 272 271 270 270 269 267 269 269 269
259 256 253 252 251 250 250 250 253 257 258 260 262 264 267 271 272 274 275 275 276 275 276 277 276 276 278 279 278 277 275 274 274 273 273 272 271 269 270 269 269 270 270 267
260 257 256 255 252 252 252 251 253 258 261 262 263 264 266 271 272 275 276 275 273 271 273 274 274 275 277 278 279 277 276 276 273 271 271 271 271 271 269 268 269 269 268 267
258 256 259 256 251 253 251 252 255 259 261 262 264 263 265 268 272 274 276 275 272 271 271 272 273 275 275 276 276 274 274 274 270 268 268 269 270 272 271 269 266 267 268 266
260 257 259 259 253 253 253 255 256 258 259 259 260 262 265 267 269 271 272 273 272 271 270 271 272 273 274 275 274 273 272 272 270 268 266 266 268 268 269 269 268 267 265 265
260 259 260 261 257 257 258 258 258 259 259 260 261 262 265 266 268 268 268 269 272 271 270 270 272 274 275 275 274 272 272 271 270 269 267 267 267 268 268 268 268 267 266 266
261 258 258 260 259 258 261 264 264 263 263 263 263 264 264 266 267 267 267 267 269 271 270 270 272 273 272 272 272 272 272 271 270 269 269 268 268 269 268 269 267 266 266 266
262 260 260 258 260 259 260 263 264 264 264 264 264 263 263 264 264 265 266 267 267 268 269 270 270 269 270 270 272 272 272 272 271 270 269 268 269 269 269 269 269 269 268 269
266 264 263 262 262 263 264 265 267 267 265 264 263 262 262 262 262 264 266 267 266 266 269 270 270 269 269 269 270 273 273 273 273 273 270 270 269 269 269 270 271 272 272 272
267 265 265 267 266 267 268 267 267 268 267 265 263 263 263 262 261 263 265 268 266 266 268 268 270 269 269 270 272 273 273 275 275 274 271 269 270 271 272 271 272 273 273 273
268 268 266 268 270 269 269 269 269 269 270 268 265 264 262 260 260 262 267 269 269 269 271 270 271 272 271 270 272 271 272 276 275 275 273 272 272 272 273 273 273 274 274 274
268 268 268 269 268 269 270 272 272 270 268 267 265 263 261 260 260 264 267 270 270 270 271 272 273 273 273 271 273 274 275 276 276 275 274 275 275 273 273 274 274 273 272 272
270 270 267 268 268 267 267 269 268 267 266 266 264 260 258 258 260 264 268 270 270 270 273 275 276 276 275 275 276 277 276 276 277 277 276 276 276 274 274 274 274 272 272 271
273 274 271 271 270 269 266 266 266 265 264 264 264 262 260 260 262 266 270 274 273 271 274 274 275 276 276 278 279 279 277 276 276 278 278 277 276 275 275 274 273 272 272 273
271 271 271 272 272 271 269 267 266 265 265 268 266 265 263 263 264 267 271 274 273 274 275 275 276 277 279 281 281 280 279 278 278 278 278 279 278 277 276 275 273 273 273 273
270 269 270 269 270 269 269 269 268 266 268 269 267 265 266 266 268 270 272 272 274 275 276 276 277 280 282 284 283 283 283 281 280 280 281 282 282 280 277 275 274 274 274 274
272 270 270 268 267 267 267 267 269 269 269 270 268 268 269 270 271 272 272 273 273 275 277 277 279 281 282 283 283 283 284 284 282 281 282 282 283 282 280 278 276 276 275 274
272 270 270 269 268 269 268 267 268 268 270 270 269 270 273 274 274 276 276 276 276 277 278 279 280 281 280 281 281 282 284 285 286 285 284 284 284 284 282 280 279 278 277 275
274 271 270 270 270 269 268 268 267 268 269 267 268 270 272 274 277 279 279 279 279 279 278 278 280 282 282 281 280 282 285 285 285 286 287 286 285 284 283 282 281 280 279 278
276 274 271 269 269 268 267 266 266 266 267 267 268 270 273 274 277 279 279 278 279 281 279 279 281 282 282 281 280 282 285 287 287 287 288 287 286 286 285 284 284 283 281 280
278 276 273 270 270 269 266 266 267 266 266 267 268 270 273 274 277 280 279 278 279 281 281 281 281 281 282 281 281 283 285 286 287 289 288 288 287 287 285 284 286 286 283 280
279 277 275 271 270 269 266 265 265 266 266 266 268 270 272 273 276 279 280 280 280 280 280 281 281 280 280 281 282 284 286 288 289 289 289 289 288 288 287 285 286 286 285 282
279 279 278 275 272 270 266 263 263 265 266 267 269 270 271 273 275 277 280 281 282 283 282 281 280 281 282 282 285 288 291 292 293 291 289 289 288 288 288 286 286 285 285 285
280 280 280 280 279 275 270 266 266 267 267 267 268 271 274 275 276 276 279 280 282 284 284 283 281 280 280 282 285 289 292 294 294 292 290 289 288 287 286 286 287 287 287 287
281 282 282 281 282 279 275 271 270 270 269 268 270 273 275 275 275 276 278 280 281 282 284 285 286 285 283 282 285 289 292 292 293 292 291 290 289 288 286 286 288 289 290 288
282 282 282 281 282 284 281 276 272 271 271 273 272 273 273 273 273 275 278 281 282 283 285 287 287 287 286 285 288 291 292 293 295 295 294 293 291 288 287 288 289 291 291 287
Height
5780 5782 5783 5783 5785 5786 5788 5789 5790 5791 5791 5791 5790 5789 5788 5788 5788 5788 5788 5787 5787 5786 5785 5785 5784 5783 5782 5782 5782 5781 5781 5781 5781 5781 5781 5781 5781 5781 5782 5782 5782 5782 5783 5783
5773 5775 5776 5776 5778 5779 5781 5782 5783 5784 5785 5784 5783 5783 5782 5782 5781 5781 5782 5781 5781 5780 5780 5779 5779 5778 5777 5777 5776 5776 5776 5775 5775 5775 5775 5775 5776 5776 5776 5776 5776 5777 5777 5778
5766 5768 5768 5769 5771 5772 5774 5775 5776 5776 5778 5777 5777 5776 5775 5775 5775 5775 5775 5775 5775 5774 5774 5774 5773 5773 5772 5771 5771 5770 5770 5770 5770 5769 5770 5770 5770 5770 5770 5770 5771 5771 5772 5772
5759 5760 5760 5765 5764 5765 5766 5767 5768 5768 5769 5769 5769 5769 5769 5768 5768 5769 5768 5768 5768 5768 5768 5768 5767 5767 5766 5766 5765 5765 5764 5764 5764 5764 5763 5763 5764 5764 5764 5764 5765 5765 5765 5766
5752 5752 5753 5755 5756 5757 5758 5759 5760 5760 5761 5761 5761 5762 5762 5762 5762 5762 5761 5761 5761 5761 5761 5761 5761 5761 5760 5760 5759 5759 5758 5758 5758 5758 5758 5758 5758 5758 5758 5759 5759 5759 5760 5760
5746 5746 5747 5749 5749 5749 5752 5751 5752 5751 5753 5754 5754 5755 5755 5755 5755 5755 5755 5755 5755 5755 5755 5755 5754 5754 5754 5754 5753 5753 5752 5752 5751 5752 5752 5752 5752 5752 5752 5752 5753 5753 5753 5754
5739 5739 5740 5741 5741 5743 5745 5745 5745 5744 5744 5745 5747 5748 5748 5748 5749 5748 5748 5748 5748 5748 5748 5748 5748 5748 5747 5747 5747 5746 5746 5746 5745 5745 5745 5746 5746 5746 5746 5746 5746 5747 5747 5747
5733 5734 5736 5734 5736 5737 5737 5737 5737 5737 5738 5738 5739 5740 5740 5741 5741 5741 5742 5742 5742 5742 5741 5741 5741 5741 5740 5740 5740 5740 5740 5739 5739 5739 5739 5739 5739 5739 5739 5740 5740 5740 5740 5741
5727 5728 5728 5727 5728 5729 5729 5730 5730 5730 5731 5731 5732 5732 5732 5733 5734 5734 5735 5735 5735 5735 5735 5735 5734 5734 5734 5734 5734 5734 5733 5733 5733 5733 5733 5733 5733 5733 5733 5733 5733 5733 5734 5734
5720 5720 5721 5721 5721 5722 5722 5722 5723 5723 5723 5723 5724 5724 5725 5726 5726 5727 5728 5728 5728 5728 5728 5728 5727 5727 5727 5727 5726 5727 5727 5726 5726 5726 5726 5726 5725 5725 5726 5726 5726 5726 5726 5726
5714 5714 5714 5714 5714 5715 5715 5715 5716 5716 5716 5716 5717 5717 5718 5719 5720 5720 5721 5721 5721 5721 5721 5721 5720 5720 5720 5720 5720 5720 5720 5719 5719 5718 5718 5718 5718 5718 5718 5718 5718 5719 5718 5718
5709 5708 5708 5709 5709 5709 5709 5709 5709 5709 5709 5709 5710 5711 5712 5712 5713 5714 5714 5714 5714 5714 5714 5714 5713 5713 5713 5713 5713 5712 5712 5711 5711 5711 5710 5710 5710 5710 5710 5711 5710 5710 5710 5710
5703 5702 5702 5703 5703 5703 5703 5702 5702 5703 5703 5703 5704 5704 5705 5706 5707 5707 5708 5708 5708 5708 5707 5707 5706 5706 5705 5705 5704 5704 5704 5704 5703 5703 5703 5702 5702 5702 5702 5702 5702 5702 5702 5702
5698 5698 5698 5698 5697 5697 5697 5697 5697 5697 5697 5698 5698 5698 5699 5700 5701 5701 5701 5701 5701 5701 5701 5700 5700 5699 5698 5698 5697 5697 5696 5696 5696 5695 5695 5694 5694 5694 5694 5694 5694 5693 5693 5693
5692 5692 5692 5692 5692 5692 5692 5692 5692 5692 5692 5693 5693 5693 5694 5694 5695 5695 5696 5696 5695 5695 5695 5694 5694 5693 5692 5691 5690 5690 5689 5689 5688 5687 5687 5686 5686 5685 5685 5685 5685 5685 5685 5685
5687 5687 5687 5686 5686 5686 5686 5686 5687 5687 5687 5687 5688 5688 5688 5689 5689 5689 5690 5690 5690 5690 5689 5688 5687 5687 5686 5685 5683 5683 5682 5681 5681 5680 5679 5678 5678 5677 5676 5676 5676 5676 5676 5676
5682 5682 5681 5681 5681 5681 5681 5681 5682 5682 5682 5682 5682 5683 5683 5683 5683 5684 5684 5684 5683 5683 5683 5682 5681 5680 5679 5678 5677 5676 5675 5674 5673 5672 5671 5670 5670 5669 5668 5668 5668 5668 5667 5667
5677 5676 5676 5676 5676 5676 5676 5676 5677 5677 5677 5677 5677 5677 5677 5678 5678 5678 5678 5677 5677 5677 5677 5676 5675 5674 5673 5671 5670 5669 5668 5667 5666 5665 5664 5663 5662 5661 5660 5660 5659 5659 5659 5659
5671 5671 5670 5670 5670 5670 5671 5671 5671 5671 5671 5671 5672 5672 5672 5672 5672 5672 5671 5671 5671 5670 5670 5669 5668 5667 5666 5665 5664 5663 5662 5660 5659 5658 5657 5656 5655 5654 5653 5653 5652 5651 5651 5651
5665 5665 5665 5665 5665 5665 5665 5665 5665 5666 5666 5666 5666 5667 5667 5667 5666 5666 5665 5665 5664 5663 5663 5662 5661 5660 5659 5658 5657 5656 5655 5654 5653 5652 5651 5650 5649 5648 5647 5646 5645 5644 5644 5643
5660 5659 5659 5659 5659 5659 5660 5660 5660 5660 5660 5661 5661 5661 5661 5661 5661 5660 5659 5659 5658 5657 5656 5656 5655 5654 5653 5652 5651 5650 5649 5648 5647 5646 5644 5643 5642 5641 5640 5639 5638 5637 5636 5636
5654 5653 5653 5653 5653 5654 5654 5654 5654 5654 5655 5655 5656 5656 5656 5656 5655 5655 5654 5653 5653 5652 5650 5649 5649 5648 5647 5646 5645 5644 5643 5642 5640 5639 5637 5636 5635 5634 5633 5632 5631 5630 5629 5628
5649 5648 5648 5648 5648 5648 5648 5648 5649 5649 5649 5649 5650 5650 5650 5650 5649 5649 5648 5647 5646 5645 5645 5644 5643 5642 5641 5640 5639 5638 5636 5635 5634 5632 5631 5629 5628 5627 5626 5625 5624 5623 5622 5621
5644 5644 5643 5643 5642 5642 5642 5643 5643 5643 5643 5643 5644 5644 5644 5643 5643 5642 5642 5641 5640 5639 5639 5638 5637 5636 5635 5634 5633 5632 5630 5628 5627 5625 5624 5622 5621 5620 5619 5617 5616 5615 5614 5613
5640 5639 5639 5638 5638 5637 5637 5637 5637 5637 5637 5637 5637 5637 5637 5637 5637 5637 5636 5635 5634 5634 5633 5632 5631 5630 5629 5628 5627 5625 5624 5622 5620 5618 5617 5615 5614 5613 5612 5611 5609 5608 5607 5606
5635 5635 5634 5633 5633 5632 5632 5631 5631 5632 5631 5631 5631 5631 5631 5631 5630 5630 5630 5629 5628 5627 5626 5626 5624 5623 5622 5621 5620 5619 5617 5615 5613 5612 5610 5609 5607 5606 5605 5604 5603 5602 5600 5599
5631 5630 5630 5629 5628 5627 5626 5626 5626 5626 5626 5626 5626 5625 5625 5625 5624 5624 5624 5623 5622 5621 5621 5620 5618 5617 5616 5615 5614 5612 5611 5609 5607 5605 5604 5602 5601 5599 5598 5597 5596 5595 5594 5593